Home   Weather   Timișoara   Past weeks

Flag for Romania Past Weather in Timișoara, Romania — Yesterday and Last 2 Weeks

Now
45 °F

Passing clouds.


Feels Like: 40 °F
Forecast: 33 / 57 °F
Wind: 9 mph from Northwest

Location: Timisoara Airport

Current Time: Apr 23, 2017 at 8:30:09 am

Latest Report: Apr 23, 2017 at 7:30 am


Visibility: N/A

Pressure: 29.98 "Hg

Humidity: 81%

Dew Point: 39 °F

Location of TimișoaraLocation

Past Weather in Timișoara — Graph

°F

Timișoara Temperature Yesterday

Maximum temperature yesterday: 57 °F (at 2:00 pm)
Minimum temperature yesterday: 32 °F (at 1:30 am)
Average temperature yesterday: 45 °F

High & Low Weather Summary for the Past Weeks

 TemperatureHumidityPressure
High70 °F (Apr 13, 3:30 pm)94% (Apr 8, 11:30 pm)30.30 "Hg (Apr 8, 11:30 pm)
Low28 °F (Apr 18, 5:30 am)26% (Apr 10, 4:30 pm)29.74 "Hg (Apr 19, 5:30 am)
Average49 °F66%30.02 "Hg
* Reported Apr 8 7:00 am — Apr 23 7:00 am, Timișoara, Weather by CustomWeather, © 2017

Note: Actual official high and low records may vary slightly from our data, if they occured in-between our weather recording intervals... More about our weather records

Advertising

Timișoara Weather History for the Previous 24 Hours

Scroll right to see more
 ConditionsComfort  
Time TempWeatherWind HumidityBarometerVisibility
7:00 am
Sun, Apr 23
43 °FSunny.8 mph87%29.95 "Hg10 mi
6:30 am43 °FClear.8 mph87%29.95 "Hg10 mi
5:30 am45 °FClear.9 mph81%29.95 "Hg10 mi
5:00 am46 °FClear.10 mph76%29.95 "Hg10 mi
4:30 am46 °FClear.9 mph87%29.95 "Hg10 mi
4:00 am46 °FClear.9 mph87%29.95 "Hg10 mi
3:30 am46 °FClear.6 mph87%29.95 "Hg10 mi
3:00 am48 °FClear.8 mph82%29.95 "Hg10 mi
2:30 am48 °FClear.9 mph82%29.95 "Hg10 mi
2:00 am50 °FClear.8 mph76%29.95 "Hg10 mi
1:30 am50 °FClear.9 mph71%29.95 "Hg10 mi
1:00 am50 °FClear.8 mph76%29.98 "Hg10 mi
12:30 am50 °FClear.9 mph76%29.98 "Hg10 mi
12:00 am52 °FClear.8 mph72%29.98 "Hg10 mi
11:30 pm
Sat, Apr 22
52 °FClear.7 mph72%29.98 "Hg10 mi
11:00 pm50 °FPassing clouds.5 mph76%29.98 "HgN/A
10:30 pm50 °FClear.5 mph82%29.98 "Hg10 mi
9:30 pm52 °FClear.6 mph62%29.98 "Hg10 mi
9:00 pm52 °FClear.6 mph62%29.98 "Hg10 mi
8:30 pm52 °FClear.5 mph67%29.98 "Hg10 mi
8:00 pm52 °FSunny.6 mph67%29.98 "Hg10 mi
7:30 pm54 °FSunny.8 mph58%30.01 "Hg10 mi
7:00 pm54 °FSunny.8 mph58%30.01 "Hg10 mi
6:30 pm54 °FSunny.8 mph58%30.01 "Hg10 mi
6:00 pm54 °FSunny.10 mph54%30.01 "Hg10 mi
5:30 pm54 °FSunny.10 mph54%30.01 "Hg10 mi
5:00 pm54 °FPassing clouds.12 mph51%30.04 "HgN/A
4:30 pm54 °FSunny.12 mph54%30.04 "Hg10 mi
4:00 pm55 °FSunny.10 mph47%30.04 "Hg10 mi
3:30 pm55 °FPassing clouds.12 mph47%30.07 "HgN/A
3:00 pm54 °FPassing clouds.12 mph51%30.07 "HgN/A
2:30 pm57 °FPassing clouds.10 mph48%30.07 "HgN/A
2:00 pm57 °FSunny.9 mph44%30.09 "Hg10 mi
1:30 pm54 °FSunny.10 mph51%30.09 "Hg10 mi
1:00 pm52 °FSunny.9 mph54%30.12 "Hg10 mi
12:30 pm50 °FPassing clouds.9 mph58%30.12 "HgN/A
12:00 pm50 °FSunny.9 mph58%30.15 "Hg10 mi
11:30 am48 °FSunny.10 mph62%30.15 "Hg10 mi
11:00 am46 °FClear.9 mph66%30.15 "Hg5 mi
10:30 am45 °FClear.9 mph71%30.15 "Hg5 mi
10:00 am43 °FClear.8 mph71%30.15 "Hg5 mi
9:30 am39 °FClear.8 mph81%30.18 "Hg5 mi
9:00 am39 °FClear.8 mph81%30.18 "Hg5 mi
8:30 am37 °FClear.9 mph87%30.18 "Hg4 mi
8:00 am36 °FFog.7 mph93%30.18 "Hg3 mi
Weather by CustomWeather, © 2017

See weather overviewHow to use our weather pages